GFSMA_sfc_wetblb_057.txt.gz
Wetbulb
71.66 73.14 72.67 71.99 71.18 71.95 72.43 72.19 72.43 72.85 72.03 70.92 71.35 71.25 71.36 70.95 70.33 71.31 72.36 76.37 76.49 76.90 75.59 75.08 75.19 75.02 74.95 74.00 73.27 72.76 72.62 73.97 73.83 73.54 73.27 73.34 73.31 73.12 72.47 72.09 71.48 72.21 72.56
73.32 73.14 73.60 73.16 73.41 72.81 71.21 71.13 72.83 72.11 71.99 71.28 71.20 71.06 70.34 70.96 70.41 70.86 71.17 73.33 76.39 76.32 76.31 75.59 74.94 75.04 74.84 74.41 74.27 74.39 73.23 73.02 72.79 72.97 73.38 74.24 73.36 73.43 73.02 73.10 71.97 71.79 72.95
73.54 73.99 71.48 73.75 74.11 73.86 72.42 72.96 74.35 72.71 70.82 70.51 68.87 69.86 71.63 71.15 70.74 70.14 70.41 71.89 74.71 76.69 76.82 76.59 76.24 76.13 75.37 75.47 75.29 74.82 74.78 74.99 74.35 74.06 74.49 73.62 74.24 74.21 74.16 73.58 72.84 72.70 73.35
74.86 73.21 72.07 72.13 72.68 74.63 73.14 73.26 70.89 69.85 69.02 69.89 68.42 67.24 68.44 70.25 70.34 70.12 70.77 71.58 72.48 73.61 75.89 76.91 76.45 76.35 75.21 75.04 74.84 74.97 75.07 75.21 75.24 75.45 74.80 74.42 74.24 74.55 74.65 74.65 74.58 74.23 74.08
75.73 73.60 71.77 71.74 72.27 72.84 71.17 71.57 71.11 71.06 70.38 71.14 68.64 66.34 66.83 68.84 68.95 71.90 70.42 70.87 70.71 71.70 72.73 75.72 76.15 76.04 75.32 75.35 75.30 75.29 75.18 75.26 75.35 75.02 75.20 75.13 75.00 74.65 74.35 74.28 74.42 74.40 74.22
75.22 74.41 72.91 71.90 71.93 74.11 72.21 72.37 71.04 71.23 70.10 66.56 66.74 66.47 65.70 69.10 69.06 66.89 69.17 71.09 70.35 70.68 70.93 72.02 72.86 73.25 75.85 75.99 75.02 75.71 75.10 75.49 75.10 75.02 74.95 74.75 74.10 74.10 74.22 73.83 73.77 74.01 74.01
74.97 74.63 73.36 72.35 73.15 72.52 72.36 71.94 70.54 69.78 68.35 65.06 63.78 63.01 64.30 65.68 68.00 69.08 67.69 66.88 69.19 69.57 69.90 70.05 70.61 70.59 72.38 74.72 74.95 75.21 75.17 74.83 74.99 74.71 74.70 74.05 73.33 73.03 72.59 72.75 72.74 72.70 73.47
75.93 75.15 73.97 73.07 73.49 72.23 72.89 71.85 71.03 69.24 69.02 66.24 63.13 63.72 61.60 62.61 65.95 66.73 66.98 67.69 67.71 69.35 69.53 69.99 70.46 70.19 70.03 71.00 71.32 74.40 74.27 74.64 74.79 74.47 74.54 73.80 73.10 72.73 72.21 71.56 71.77 71.78 72.29
75.79 75.29 74.70 74.05 73.18 72.70 71.63 71.46 71.24 69.35 67.19 65.50 65.80 64.26 61.41 57.73 62.32 64.92 65.64 66.06 66.65 66.20 67.73 69.78 70.42 71.54 70.12 71.30 73.07 73.18 74.60 74.55 75.16 74.35 73.25 71.86 71.06 70.39 69.87 69.61 69.71 69.51 69.54
75.59 75.76 74.97 74.28 73.38 73.50 72.49 72.13 72.93 70.95 68.75 66.80 64.03 64.70 66.62 66.49 59.50 58.82 64.18 63.92 66.25 65.79 65.55 67.75 69.53 70.90 70.94 70.68 72.38 73.14 74.43 74.25 74.43 72.71 69.60 68.28 69.40 69.40 68.65 68.76 68.89 68.68 68.55
74.63 76.78 75.40 74.47 74.15 73.22 72.69 72.46 72.64 72.15 71.54 68.05 63.39 63.38 63.61 64.45 65.99 62.43 59.86 63.01 65.14 65.44 66.33 67.01 67.85 66.62 67.37 67.69 69.49 72.39 73.12 71.33 70.52 70.60 70.44 69.60 69.00 68.60 68.26 67.99 67.82 68.36 68.72
74.92 74.99 76.20 75.34 74.90 74.30 73.14 73.15 72.85 72.05 70.52 71.77 68.72 66.44 62.35 61.24 62.07 61.37 61.77 62.62 64.13 65.04 65.81 66.99 67.04 66.26 66.53 64.08 68.60 71.43 71.05 70.12 69.85 69.83 70.00 70.46 70.72 69.84 69.30 69.03 68.66 68.82 68.63
73.91 74.28 75.05 75.03 74.88 74.27 74.53 73.81 73.43 73.00 72.06 70.86 70.51 66.90 65.67 63.49 65.04 62.70 63.20 63.15 63.75 65.83 65.90 65.97 67.96 67.15 67.49 65.15 64.97 69.16 70.51 69.14 68.82 68.28 68.16 68.56 69.21 69.64 70.05 69.57 69.09 68.98 69.23
73.41 74.58 75.32 75.82 75.20 74.77 74.70 74.73 73.72 74.34 73.33 72.03 72.70 70.29 67.07 67.95 66.11 64.08 62.98 62.00 60.28 60.83 63.60 63.74 66.70 67.27 67.46 66.99 66.78 69.60 66.96 67.65 67.50 66.79 66.53 66.71 67.31 67.86 68.71 69.32 69.66 69.98 69.55
73.50 74.40 74.95 74.62 75.65 75.05 74.40 73.63 75.13 74.09 74.09 73.17 71.97 72.17 69.84 68.34 67.46 66.42 64.02 64.11 61.67 58.37 60.22 64.09 64.26 67.06 67.13 68.70 67.08 66.29 64.08 67.16 66.99 66.39 65.70 65.84 66.15 66.69 67.40 67.53 67.54 67.67 67.95
73.28 73.37 74.69 74.70 75.70 75.90 75.62 74.19 74.14 75.02 73.49 73.70 72.80 72.07 71.43 69.99 67.61 66.69 65.69 64.86 64.15 62.30 59.41 64.47 64.99 66.28 67.85 68.46 68.33 64.76 64.23 66.40 66.73 65.95 65.63 65.26 65.66 66.07 66.30 66.61 66.74 66.85 67.08
72.69 75.80 75.67 75.25 75.21 75.18 75.29 74.84 73.14 73.94 74.16 73.77 72.76 72.24 71.48 70.77 68.13 67.92 66.57 66.06 64.99 63.72 60.97 62.25 64.61 66.02 64.87 66.97 66.49 64.94 66.88 67.14 64.81 65.52 65.53 65.20 65.10 65.30 65.79 66.21 66.16 66.27 66.36
73.14 73.40 76.15 76.00 75.59 75.34 74.72 74.64 74.47 74.84 74.01 73.78 73.43 71.77 72.25 72.34 69.37 69.15 68.66 64.61 64.70 65.21 62.93 60.79 65.17 67.06 64.92 65.58 65.28 66.27 68.04 69.17 67.76 66.75 64.97 64.62 64.38 64.19 64.66 64.57 64.39 64.57 64.73
73.99 74.69 73.78 75.69 75.51 75.25 75.02 74.67 75.03 74.87 73.75 74.13 74.44 73.66 72.04 72.44 70.57 70.19 68.27 67.75 66.04 65.64 65.80 63.08 63.71 66.26 66.79 66.60 66.76 67.07 67.39 67.03 68.27 68.39 65.36 64.57 64.43 64.46 63.65 63.07 62.81 62.26 62.30
74.40 75.42 75.78 74.65 75.57 75.40 75.10 75.29 75.39 74.95 74.82 74.22 75.02 74.95 73.83 72.75 72.04 70.91 69.29 68.17 66.67 65.92 65.60 65.61 63.67 64.43 66.11 67.04 65.68 65.03 66.00 68.22 67.90 69.40 67.15 65.75 65.31 64.72 64.00 62.57 62.04 61.60 60.03
75.52 74.93 74.97 76.02 75.77 75.78 75.69 74.85 74.86 75.13 75.17 75.20 74.95 75.10 75.24 74.09 71.77 71.35 71.54 69.98 67.06 65.58 65.44 65.58 63.46 63.49 63.57 65.57 66.20 66.46 65.54 66.42 67.31 67.98 66.01 64.11 63.54 64.51 63.91 63.51 64.05 63.87 61.39
74.81 75.23 75.64 74.84 75.89 76.43 70.96 69.42 73.63 75.00 75.13 75.18 74.90 75.08 75.36 72.93 71.78 68.57 68.44 68.91 69.36 66.65 64.48 65.80 64.93 63.77 62.64 64.41 65.17 65.75 66.43 64.66 63.29 67.83 66.70 65.76 65.03 64.92 64.98 64.77 63.86 62.94 61.76
76.40 75.62 75.31 76.08 75.80 76.25 68.38 67.38 69.30 75.10 74.70 75.19 75.22 75.28 75.04 75.46 72.10 73.75 68.04 67.04 66.97 66.28 66.76 66.08 65.63 64.13 63.89 65.75 66.12 65.54 65.30 64.43 63.47 66.05 65.31 63.40 65.90 64.57 65.82 66.37 63.58 62.41 61.65
76.02 75.99 75.90 75.96 76.35 76.50 68.11 65.63 67.37 74.71 75.11 74.77 75.31 75.73 75.38 75.32 74.72 73.68 73.28 70.83 70.36 70.25 68.32 67.53 67.34 66.84 67.20 67.95 67.81 67.76 66.41 65.52 65.62 66.11 66.48 62.15 64.86 64.28 65.64 64.37 62.44 61.51 60.70
76.05 75.88 76.29 76.05 76.10 76.58 65.72 64.72 65.52 73.55 74.69 74.82 75.12 75.07 75.38 75.55 71.04 65.97 73.30 72.39 71.26 71.01 67.38 64.73 66.02 64.96 65.23 65.61 67.56 67.05 65.60 64.13 62.83 63.55 65.81 64.13 63.81 63.50 63.61 60.72 59.78 60.78 58.79
76.10 76.49 76.12 76.58 73.51 76.40 66.88 62.64 64.99 74.72 73.51 73.62 74.58 74.69 67.57 71.92 65.55 62.60 71.77 73.03 71.36 71.49 70.00 65.34 66.68 64.09 64.51 65.67 64.58 66.28 65.30 63.75 63.91 62.23 65.24 63.48 62.95 62.60 54.90 56.57 57.87 58.69 56.40

GFSMA_sfc_wetblb_060.txt.gz
Wetbulb
70.61 71.73 71.90 71.28 71.30 71.67 71.57 71.21 71.29 71.98 71.85 72.05 70.55 71.01 70.13 69.84 70.25 72.49 73.13 76.13 76.63 76.35 75.06 75.43 74.86 74.89 73.73 73.05 73.53 73.87 74.01 74.07 73.79 73.45 73.06 73.31 73.28 72.75 72.11 71.56 71.36 71.66 72.27
71.27 71.62 71.39 71.33 71.71 71.45 71.27 71.14 71.02 71.90 70.50 70.50 71.04 70.37 70.47 69.98 69.34 71.83 72.28 74.06 76.94 76.55 75.90 74.91 75.05 74.80 75.18 73.99 73.43 72.69 72.34 73.50 73.34 73.40 73.15 73.61 73.47 73.33 73.11 73.34 72.38 71.71 72.03
72.35 71.69 71.44 71.56 72.37 72.20 71.06 70.85 71.27 71.48 70.07 69.13 69.23 69.48 70.88 69.80 69.49 69.22 70.39 71.59 74.18 76.67 76.40 75.98 75.60 75.35 74.99 74.89 74.35 74.55 74.10 73.72 73.55 73.55 73.63 72.95 73.72 73.63 73.70 73.22 72.92 72.42 72.26
73.11 72.31 72.29 72.52 72.60 72.87 72.36 71.64 70.86 68.82 68.05 68.52 67.61 67.61 68.90 69.47 69.34 69.32 69.68 71.04 72.89 73.64 75.80 76.84 76.42 76.11 75.18 75.23 75.22 74.89 74.66 74.93 74.80 74.75 73.94 73.87 73.19 73.95 74.06 74.01 73.96 73.76 73.56
73.85 71.88 71.24 71.59 71.84 71.61 70.73 70.81 69.31 69.09 69.48 69.76 68.44 65.33 66.82 69.29 69.70 70.27 70.05 70.15 71.38 72.29 72.94 75.01 76.29 76.11 75.08 75.10 75.14 74.73 74.86 74.74 75.26 74.63 74.41 74.28 74.26 74.26 74.28 74.30 74.30 74.25 74.00
73.45 72.11 71.44 70.94 70.64 72.09 70.48 71.15 68.70 70.89 69.20 65.29 66.34 64.75 64.97 67.36 67.26 68.70 69.06 70.06 69.50 70.47 71.44 71.88 73.17 73.53 75.67 75.88 75.66 75.65 75.19 75.14 74.88 74.58 74.78 74.85 74.33 74.13 73.83 74.05 73.85 74.04 73.96
74.26 72.80 71.72 71.32 70.25 71.66 70.66 70.75 69.06 68.41 66.52 63.70 61.56 61.89 62.86 64.98 66.41 66.07 67.76 68.45 68.79 69.22 69.04 70.22 71.01 70.74 71.94 75.25 75.16 75.03 74.82 74.69 74.67 74.24 74.56 74.58 73.81 73.21 72.66 72.49 71.77 72.21 72.74
74.18 73.77 72.51 71.57 70.73 71.48 71.27 70.82 69.97 67.64 67.64 64.02 62.47 61.26 58.15 60.91 63.87 65.75 65.05 66.91 67.47 68.37 68.76 69.30 69.62 69.53 69.46 70.67 71.11 74.50 74.27 74.63 74.69 74.75 74.47 74.06 73.08 72.66 71.96 71.32 70.66 70.88 71.18
74.81 74.25 73.40 72.32 72.44 71.67 70.95 70.39 69.67 68.01 65.91 64.57 63.10 63.20 58.60 56.58 60.44 63.51 64.44 65.45 66.62 67.34 67.66 68.32 69.16 69.37 68.97 69.64 71.71 72.84 74.20 73.74 75.05 74.18 73.73 72.50 71.46 70.45 69.46 69.03 68.93 68.79 68.93
74.13 74.48 73.58 73.04 72.14 72.22 70.83 70.46 71.18 68.92 66.15 63.39 63.17 63.60 65.17 64.14 58.26 57.78 62.26 62.73 65.03 66.32 66.21 67.27 69.35 70.17 69.28 69.63 72.33 72.72 74.33 74.13 74.93 74.05 72.68 69.73 68.51 68.64 67.79 67.67 68.26 68.33 68.53
73.54 74.88 74.00 73.09 72.42 72.16 72.11 71.03 71.35 70.37 69.09 66.75 62.03 61.28 62.04 63.06 64.30 58.97 57.57 61.04 64.10 63.93 64.44 66.94 68.91 69.61 69.77 69.76 69.48 71.20 73.91 73.81 73.61 72.54 70.54 69.04 68.30 68.06 67.96 67.79 67.57 67.27 67.06
72.11 74.16 74.61 73.10 72.76 72.41 72.03 71.54 71.38 71.15 70.68 69.11 66.06 64.66 61.40 60.04 60.84 60.57 59.44 60.98 61.68 62.73 64.18 65.67 66.40 67.14 67.66 67.61 70.76 72.37 73.63 72.41 70.57 69.93 69.74 70.37 70.43 69.50 69.30 69.20 68.95 69.00 69.04
71.43 72.20 74.21 73.12 73.28 72.99 72.48 72.10 71.63 71.12 69.76 69.67 69.28 65.60 63.90 61.09 62.97 60.47 61.08 61.39 61.62 63.32 63.75 64.82 65.85 65.30 67.16 64.14 68.10 71.88 72.56 69.53 68.85 68.42 68.44 69.04 70.01 70.94 71.23 70.33 69.41 69.28 69.20
72.72 73.08 73.98 74.61 73.85 73.70 72.94 72.54 71.81 71.96 71.60 70.38 69.89 68.30 65.58 65.54 64.45 63.47 61.67 60.17 58.36 59.57 61.82 63.81 65.33 65.59 66.02 64.14 64.78 71.01 66.87 67.84 67.74 67.04 66.78 67.21 67.94 68.87 69.03 69.57 69.74 69.76 69.26
72.82 73.09 73.79 74.43 74.23 73.90 73.00 73.29 72.05 72.11 72.70 71.45 69.87 70.84 68.53 66.30 66.26 65.40 62.19 62.09 59.48 57.09 58.60 62.35 63.18 65.93 66.91 65.62 65.85 66.97 63.83 66.96 67.13 66.32 65.60 65.66 66.06 66.76 67.40 67.65 67.70 67.45 67.37
70.92 72.42 73.01 73.58 74.43 74.15 73.43 72.49 72.80 73.06 72.93 72.32 71.79 70.17 69.91 69.26 67.49 65.94 65.03 62.42 61.98 59.66 57.41 61.28 63.99 64.56 66.73 67.23 67.20 66.46 63.76 65.98 66.81 66.04 65.34 64.71 65.21 65.71 66.18 66.49 66.33 66.57 66.75
70.97 71.15 72.88 73.29 73.14 74.28 73.58 72.60 72.12 73.45 72.57 72.52 72.46 71.16 70.35 69.87 68.87 66.60 64.85 64.16 62.19 61.49 59.74 60.11 63.07 64.19 64.64 65.73 65.73 66.82 64.40 63.15 63.36 65.55 65.28 64.81 64.33 64.77 65.32 65.54 65.51 65.87 66.11
69.79 71.15 74.10 73.42 73.29 73.68 74.51 73.82 72.48 73.14 73.62 72.39 72.89 72.14 71.74 71.43 69.21 67.93 66.23 65.22 63.44 62.67 60.96 59.07 60.22 65.20 63.24 64.60 65.37 65.30 63.97 65.02 63.38 64.88 64.78 64.49 63.72 63.55 63.50 63.64 63.66 64.03 64.02
70.75 70.84 73.55 74.46 73.89 73.83 73.57 74.52 74.15 73.38 72.82 73.43 73.33 72.78 72.16 71.24 70.77 70.16 67.26 66.69 65.27 63.67 62.76 61.12 60.45 64.21 64.61 64.87 63.81 63.88 64.14 64.78 66.56 67.40 64.34 63.81 63.48 63.15 62.72 61.87 61.97 61.28 61.30
72.03 71.33 71.89 73.96 74.80 74.41 74.31 73.87 73.84 74.10 73.67 73.51 73.40 73.57 73.17 71.68 71.53 70.98 69.61 68.32 67.08 65.02 63.27 63.57 62.09 63.24 64.49 65.51 64.37 63.51 63.57 65.46 65.93 67.82 68.22 66.10 65.27 64.54 63.57 62.26 61.93 61.63 59.07
72.61 72.83 72.35 72.61 74.33 74.75 74.89 74.03 73.82 73.39 73.31 73.65 73.79 73.65 74.02 73.61 71.43 71.19 71.29 70.11 68.61 65.31 64.49 63.90 62.33 62.44 62.86 63.99 64.39 64.20 63.97 64.82 66.52 66.89 66.20 65.55 64.47 64.56 65.20 64.29 64.50 64.36 61.14
72.76 72.90 72.68 73.05 73.51 74.62 70.16 68.77 72.91 73.81 73.58 72.94 72.69 73.36 73.61 72.28 71.47 68.51 68.21 68.79 70.15 68.19 66.01 64.41 64.81 62.72 64.80 65.02 64.76 65.72 64.92 62.15 62.42 67.20 66.58 66.20 65.38 64.68 65.24 64.95 64.64 63.35 61.33
73.86 72.91 73.51 73.22 72.84 74.60 67.26 66.84 68.70 73.87 73.42 73.50 73.41 73.53 73.68 74.56 71.64 73.85 68.70 66.54 66.75 66.33 67.96 68.14 64.17 64.93 64.99 65.63 65.76 64.77 65.60 64.19 64.52 65.36 66.13 65.25 65.51 64.60 66.30 67.00 63.77 62.75 60.27
74.60 74.26 73.13 73.78 74.43 74.07 66.33 64.91 66.87 73.23 74.09 73.74 73.96 74.03 73.79 73.88 73.93 73.09 73.59 72.62 70.40 70.85 68.94 68.45 69.23 68.20 67.25 67.39 66.24 66.25 66.02 65.45 64.99 65.82 65.47 62.47 64.73 64.37 65.68 66.12 64.26 62.44 59.85
74.82 75.05 75.25 74.61 73.75 74.26 65.00 63.45 64.97 72.37 73.51 73.97 74.39 74.36 74.21 74.30 70.22 66.18 72.49 72.66 72.76 71.83 69.08 64.87 65.59 66.19 64.43 63.78 65.89 67.26 65.62 64.65 62.40 63.55 65.89 64.29 64.23 63.89 64.26 64.22 64.30 61.24 58.91
75.12 75.53 75.11 75.58 72.25 75.05 65.67 62.10 64.85 73.96 73.46 73.73 74.38 74.92 67.41 71.30 65.47 63.24 71.32 73.19 72.27 72.60 72.30 71.52 67.61 65.85 64.25 65.76 64.00 67.87 67.39 64.86 63.57 61.72 65.21 64.15 63.31 62.92 59.69 57.22 58.66 59.70 57.94

GFSMA_sfc_wetblb_063.txt.gz
Wetbulb
71.04 71.40 70.83 71.61 70.95 71.11 70.93 70.12 70.48 72.01 71.01 71.26 70.29 70.43 70.66 69.97 70.24 71.52 72.33 75.73 76.06 75.81 74.79 74.61 73.78 73.18 72.91 73.06 73.20 73.34 73.24 73.26 73.16 72.43 72.14 72.35 72.44 72.08 71.50 71.19 71.51 71.43 72.04
70.72 71.23 70.94 70.39 70.34 70.72 70.82 70.59 69.59 71.28 69.96 70.18 69.80 70.24 70.10 69.60 70.23 71.69 72.43 73.19 76.35 76.21 75.17 74.91 74.43 74.32 73.79 73.04 72.78 72.90 73.57 74.08 73.40 72.92 72.58 73.33 73.21 73.24 72.78 72.99 72.95 72.01 71.86
70.81 71.45 70.69 70.18 71.26 71.17 70.96 70.02 69.85 70.35 69.57 68.34 68.68 69.49 69.49 68.88 68.84 70.38 71.27 71.37 74.19 76.00 75.13 74.82 75.29 75.01 74.84 74.14 74.07 73.41 72.58 72.66 72.76 72.87 73.13 72.50 73.14 73.50 73.52 73.40 73.10 72.93 72.81
71.97 70.96 70.82 71.21 71.99 71.32 70.30 69.84 69.59 68.39 66.99 67.28 66.02 67.19 68.61 68.36 68.43 68.52 69.72 71.02 72.28 73.24 75.22 76.22 75.91 74.68 74.70 74.61 74.40 74.11 74.02 73.85 74.16 74.09 73.57 73.80 72.84 73.15 74.10 73.23 73.80 73.90 73.60
72.94 71.41 71.35 71.45 71.58 71.28 69.69 70.41 68.72 67.85 67.77 68.15 67.68 65.63 67.59 68.25 68.17 69.51 68.41 69.64 71.08 72.45 72.35 74.47 75.83 75.98 75.04 74.97 74.76 74.86 74.90 74.63 74.47 74.15 73.95 73.40 73.63 73.35 73.73 73.88 73.38 73.40 73.01
72.91 71.03 70.69 70.79 70.68 70.86 69.45 70.25 68.94 70.07 68.07 62.35 65.86 65.15 66.00 66.83 67.78 67.82 68.25 69.44 69.75 71.05 71.27 71.80 72.48 73.29 75.32 75.01 75.66 75.13 74.58 74.57 74.82 74.40 74.40 73.77 73.97 73.85 73.05 73.69 73.29 73.08 72.93
72.79 71.46 70.94 69.99 69.16 70.54 69.75 69.89 68.67 67.36 65.42 62.75 60.82 61.15 61.88 64.15 65.59 66.66 67.70 68.00 68.28 68.89 69.29 69.63 70.65 71.34 71.23 75.35 75.30 75.25 74.67 74.75 74.86 74.54 74.55 74.09 73.94 73.44 72.78 72.38 71.82 71.81 72.15
73.32 72.55 71.20 70.47 69.31 70.40 70.19 69.90 68.86 67.13 66.71 62.38 61.04 59.33 56.98 60.33 63.48 64.98 65.10 67.26 67.48 68.11 68.24 68.66 69.13 69.60 68.96 69.68 71.30 74.40 75.50 74.73 74.42 74.49 74.37 74.45 72.95 72.43 71.61 71.19 70.07 70.00 69.95
73.33 73.21 72.27 71.13 70.27 70.65 70.10 69.64 69.34 67.16 65.17 63.67 62.31 61.05 57.23 56.03 59.27 62.61 63.85 64.62 66.08 66.55 66.99 67.50 68.22 68.61 68.36 68.39 71.33 72.16 74.27 73.28 73.76 74.02 73.96 72.86 71.79 70.44 68.62 68.48 68.53 68.68 68.46
73.01 73.83 73.11 72.16 71.65 71.70 70.69 69.65 70.41 67.83 65.09 61.90 62.05 62.87 63.71 60.86 58.75 57.61 60.94 63.03 63.69 66.22 66.10 66.63 67.60 68.11 68.35 67.97 70.48 72.60 73.23 73.55 74.63 74.89 73.93 72.24 69.81 68.09 67.52 67.40 67.44 67.66 68.21
72.62 74.07 73.28 72.21 71.54 71.31 71.07 70.28 70.00 69.05 67.63 64.41 61.40 59.87 61.20 62.36 61.42 57.38 56.89 60.09 62.64 63.61 64.92 65.89 66.98 68.24 69.04 68.26 69.07 70.54 73.09 73.53 73.90 74.36 73.50 70.43 68.14 68.11 67.97 67.73 67.51 67.23 67.15
71.75 72.85 73.81 72.45 71.84 71.29 71.00 71.03 70.70 69.88 69.44 67.19 63.89 62.20 61.12 60.07 61.59 60.15 58.01 58.94 59.93 62.18 63.67 64.47 65.53 67.70 68.69 68.58 70.64 71.78 73.13 73.13 72.79 72.68 70.61 70.24 70.30 69.18 69.03 69.14 68.86 68.93 69.10
69.36 71.38 73.01 72.44 71.58 71.59 71.58 71.17 70.34 70.30 69.83 69.34 67.92 65.19 62.37 60.12 61.11 59.87 60.04 59.52 60.08 61.49 63.21 63.52 64.85 66.12 68.07 67.40 69.09 72.29 72.75 71.84 71.18 69.31 68.34 69.04 69.98 70.86 71.25 70.76 70.44 69.67 69.68
69.85 71.01 72.50 73.23 72.29 72.40 71.98 71.58 70.64 70.47 70.16 69.33 68.99 67.54 64.60 62.99 61.85 62.09 60.92 59.71 58.37 58.45 61.05 62.80 63.84 65.57 66.00 66.19 67.17 70.71 69.71 70.16 68.90 67.16 66.83 67.39 68.09 69.05 69.92 70.61 70.42 70.49 70.39
70.56 71.22 71.94 72.90 73.06 72.85 72.39 71.91 71.25 70.46 70.81 70.12 69.08 69.00 67.56 65.13 65.00 64.25 61.32 60.35 58.62 55.90 57.32 61.44 62.63 64.94 65.89 65.17 66.13 66.23 67.85 67.54 67.75 66.59 65.87 65.97 66.53 67.35 67.89 68.38 68.20 67.89 67.66
69.25 71.10 71.61 72.32 73.09 73.16 72.90 72.24 71.68 71.07 71.05 71.05 70.81 68.89 68.73 68.58 66.38 65.20 64.23 61.73 59.96 58.16 56.30 59.43 61.70 63.56 65.26 66.29 66.55 65.61 65.61 66.40 66.81 66.21 65.63 65.13 65.48 66.05 66.43 66.77 66.55 66.54 66.39
68.38 69.45 71.38 71.79 72.25 73.23 72.98 72.10 71.77 72.40 71.44 71.25 71.47 70.40 69.56 68.68 68.51 66.93 64.60 63.32 61.37 59.98 58.01 59.32 61.14 62.84 63.59 64.31 65.38 66.54 65.90 63.89 63.20 65.77 65.54 64.97 64.24 64.76 65.36 65.57 65.46 65.60 65.76
69.83 69.99 70.12 71.54 71.96 72.68 73.29 72.56 71.81 72.34 72.26 71.64 71.83 71.19 70.93 71.11 68.55 67.81 66.14 64.34 62.96 61.54 60.32 59.21 59.46 62.01 62.56 63.52 64.65 64.48 65.87 65.34 63.40 64.35 64.99 64.59 63.89 63.43 63.39 63.52 63.68 63.54 64.00
69.24 68.49 71.20 71.87 71.84 72.09 72.61 73.24 72.72 72.20 71.91 72.26 72.31 71.84 72.10 70.49 70.28 69.61 67.54 66.59 64.52 63.70 61.87 60.17 62.61 60.71 63.19 63.13 63.15 63.35 63.54 63.98 64.13 65.02 63.05 63.41 63.63 63.28 62.60 61.66 62.23 61.18 60.89
70.93 69.46 69.40 71.01 72.76 72.87 72.94 73.02 73.42 72.68 72.11 72.28 72.62 72.83 72.66 71.71 71.56 71.18 69.96 68.94 67.65 64.86 62.46 62.05 63.09 62.63 62.10 63.56 63.43 62.44 62.34 63.04 64.15 65.70 66.34 64.87 64.51 63.96 63.38 62.13 62.32 62.43 59.17
71.92 71.60 70.96 70.32 72.26 73.28 73.63 73.07 73.04 73.11 72.95 72.53 72.63 72.62 72.75 72.76 71.23 70.83 71.59 70.64 68.85 66.58 66.63 64.22 64.59 61.44 62.44 62.17 62.84 63.85 63.82 64.83 64.63 65.65 65.72 66.02 64.97 65.03 64.99 63.58 64.41 64.28 60.96
70.61 71.42 71.16 71.08 70.71 72.62 68.83 68.32 72.11 72.69 72.38 72.39 72.27 72.74 72.97 71.74 71.08 68.30 67.82 68.71 70.52 69.03 67.98 66.97 66.61 65.79 65.35 64.41 65.26 64.92 63.10 62.61 60.99 65.55 65.62 65.55 65.97 64.37 65.44 65.32 64.73 63.43 61.76
71.54 70.47 71.00 71.30 71.08 71.77 66.22 66.08 68.31 73.34 72.62 72.14 71.94 72.17 72.04 73.05 70.48 72.77 68.97 66.51 66.76 66.24 68.27 71.35 68.39 67.39 67.11 66.97 65.91 64.36 64.84 64.04 63.62 65.41 66.04 64.45 65.02 64.10 65.12 65.80 63.33 63.16 61.65
72.99 72.23 71.49 71.61 71.52 71.92 65.49 64.55 66.40 72.06 72.87 72.95 72.86 72.86 72.54 72.63 72.54 72.12 72.35 72.33 70.69 70.57 69.57 69.15 70.49 71.59 72.17 70.83 67.69 66.21 65.73 66.11 65.99 66.07 66.86 63.33 64.43 63.89 65.88 66.43 63.60 63.10 61.37
73.49 73.73 73.14 72.34 72.26 72.73 63.28 62.88 64.94 71.66 72.53 72.78 73.25 73.23 73.08 72.81 69.29 65.53 71.70 72.09 72.28 72.77 69.31 65.69 65.69 66.01 65.50 65.31 65.96 66.73 64.64 64.08 63.35 64.69 65.95 63.98 64.23 63.71 65.09 65.29 66.02 63.36 61.05
73.48 74.00 74.04 74.19 70.52 72.81 64.40 61.47 63.57 71.96 71.89 72.49 73.26 73.68 67.00 70.55 64.90 62.93 70.75 72.32 72.02 72.95 73.27 72.86 70.60 67.20 65.07 67.84 64.95 67.54 67.74 64.98 64.51 63.90 65.98 63.26 63.36 63.32 60.65 62.98 63.91 62.39 60.65

GFSMA_sfc_wetblb_069.txt.gz
Wetbulb
77.03 77.51 77.41 75.79 76.52 76.75 76.10 76.33 76.18 75.57 76.22 76.24 76.28 76.50 74.76 75.00 74.95 74.21 74.14 73.96 73.75 74.19 74.23 73.04 72.42 72.42 72.73 72.90 72.94 72.98 72.85 72.50 72.47 71.92 72.03 72.27 72.32 72.46 72.11 72.78 72.76 72.20 71.78
77.17 77.13 77.52 75.73 75.46 76.15 75.85 76.40 77.08 76.26 76.41 76.47 75.90 75.26 75.57 75.29 75.09 74.32 74.20 75.79 74.13 74.25 74.46 73.92 72.99 72.55 72.52 72.33 72.71 72.78 73.04 73.47 72.87 73.00 72.74 72.69 73.31 73.21 73.04 73.26 73.01 73.02 72.90
77.06 77.23 77.60 78.16 76.03 76.28 76.50 76.17 76.64 76.51 75.51 74.72 74.87 75.23 75.27 75.25 75.04 74.28 74.55 75.46 75.45 74.94 74.52 74.27 73.86 74.11 74.16 73.06 72.52 72.59 72.34 72.14 72.70 72.45 72.65 73.05 72.64 72.45 72.91 73.22 72.90 73.15 73.31
77.21 76.67 76.93 76.86 76.56 76.92 75.94 76.07 76.46 75.36 74.80 74.20 74.04 74.69 74.70 74.79 74.57 74.63 75.10 75.40 75.16 75.53 75.42 74.72 74.58 74.38 73.77 74.15 74.02 74.13 74.07 73.78 73.54 73.50 73.71 73.61 73.42 73.54 72.64 73.00 73.21 72.93 72.81
76.64 77.03 77.06 77.09 77.55 76.84 76.46 76.28 75.48 75.51 74.60 75.32 74.28 74.15 74.79 74.29 73.84 73.70 74.13 74.54 74.91 74.90 75.89 74.68 74.30 75.16 74.56 74.98 74.94 74.46 74.54 74.25 74.10 73.91 73.56 73.42 73.57 73.22 73.03 72.98 72.73 72.54 72.91
77.29 77.06 77.09 77.11 78.03 78.09 75.70 75.82 75.92 75.13 73.57 71.71 71.26 71.98 74.15 75.16 75.24 74.78 74.74 73.91 74.32 74.15 74.43 75.13 75.49 75.55 75.70 75.00 75.01 74.60 74.64 74.92 74.82 74.51 74.33 73.78 73.91 73.33 73.21 72.86 72.52 72.22 72.51
77.57 77.28 76.30 76.45 76.63 76.39 75.92 76.36 74.65 73.98 71.51 71.73 70.85 70.49 71.34 73.01 73.35 74.39 74.84 74.62 74.17 74.37 74.24 74.29 74.48 74.81 74.76 74.54 75.04 74.59 74.88 74.38 74.76 74.16 74.20 74.38 73.66 73.14 72.22 71.45 71.13 70.52 70.64
77.85 77.42 76.76 75.92 76.06 76.44 76.23 76.18 75.62 74.05 73.40 71.94 70.22 69.91 67.44 69.34 72.01 72.67 73.94 73.65 73.78 74.81 74.43 74.13 74.12 74.61 74.95 74.47 74.23 73.55 74.15 74.67 74.54 74.34 74.64 74.28 73.43 71.85 71.26 70.15 68.55 67.94 68.26
77.37 77.89 77.56 77.24 75.99 76.06 77.46 77.30 76.53 74.73 72.13 71.28 71.48 70.04 65.84 65.30 69.29 71.93 72.25 72.87 73.45 73.58 74.29 74.40 74.50 74.44 74.80 74.32 73.42 73.66 74.03 74.55 73.56 73.32 73.83 73.78 72.29 71.31 69.80 67.62 66.57 66.83 66.92
76.70 77.15 77.68 77.25 76.96 75.79 77.50 76.86 76.53 75.37 74.98 72.16 70.82 71.85 71.98 70.36 67.23 67.09 71.05 72.76 72.82 72.33 73.41 73.83 73.93 74.70 74.81 74.35 73.85 73.41 73.03 73.31 73.56 72.73 73.69 73.98 72.42 71.03 67.90 66.84 66.64 66.38 66.48
76.56 76.35 77.43 77.65 77.44 77.33 77.38 76.74 76.71 76.43 74.97 73.98 71.19 70.14 72.01 72.57 71.23 68.93 65.94 69.23 72.24 72.45 72.74 73.39 73.64 73.90 74.52 74.70 74.42 74.30 72.86 73.37 73.20 73.31 74.85 74.21 72.69 69.47 67.99 67.75 67.37 67.18 67.10
75.59 76.73 76.94 77.73 77.83 78.44 77.26 77.29 77.76 76.95 76.11 74.95 73.30 71.38 70.69 69.59 69.95 70.36 68.54 69.10 68.67 71.05 72.01 72.71 73.22 73.89 74.11 74.34 74.85 73.34 72.76 72.83 72.48 72.57 73.78 74.02 73.09 69.55 69.31 69.40 69.12 68.96 69.00
73.62 75.55 77.01 77.31 77.00 78.10 77.95 77.58 77.20 76.85 76.48 75.34 75.22 73.40 72.88 71.84 71.02 70.66 69.05 68.20 68.01 70.71 71.17 72.59 73.04 73.76 73.93 74.19 74.26 73.45 73.19 71.92 71.51 70.85 71.31 72.07 71.77 70.88 71.22 71.12 70.79 70.44 70.50
73.23 75.86 76.48 76.95 77.40 77.79 77.96 77.99 76.95 76.46 77.12 76.26 76.29 75.95 74.75 74.45 72.13 71.26 69.37 67.90 66.04 67.88 69.71 71.11 73.45 73.30 73.63 73.95 74.40 72.99 73.56 70.53 70.16 69.31 69.21 69.73 69.64 69.23 70.42 71.23 71.90 72.19 72.16
73.43 74.83 75.68 76.00 76.67 77.26 77.93 78.16 76.80 77.08 76.88 76.91 76.47 76.86 76.09 75.45 74.40 72.75 71.20 70.13 68.27 65.17 66.27 70.37 69.82 74.45 74.11 73.95 74.04 74.34 74.57 71.55 69.54 68.93 67.85 67.85 67.97 67.68 68.43 69.07 69.75 70.03 70.06
74.81 74.53 75.19 75.51 76.13 76.62 77.15 77.68 76.92 77.62 77.26 76.64 76.31 76.28 76.37 75.77 75.79 74.85 73.33 72.36 70.74 68.86 66.40 69.88 70.33 72.31 73.62 72.71 73.84 73.70 74.21 71.10 69.40 68.44 67.64 67.01 66.93 66.76 66.97 67.36 67.62 67.91 68.06
75.27 75.03 75.56 75.78 75.86 76.14 76.67 76.90 76.87 76.98 76.69 77.10 77.52 76.82 76.70 77.36 75.66 75.30 75.03 73.94 72.65 71.25 68.71 69.68 71.28 72.33 72.72 73.10 73.81 74.51 74.12 73.78 72.94 67.37 67.44 67.08 65.90 65.81 65.88 65.99 66.17 66.40 66.70
75.21 75.19 75.33 75.20 75.50 75.83 76.40 76.34 75.83 76.19 76.38 76.38 76.80 77.12 76.74 76.32 76.57 76.78 75.76 75.81 74.95 74.59 71.24 72.15 73.37 72.32 73.45 73.74 74.38 73.49 72.94 72.57 73.15 69.41 66.24 65.88 65.55 64.79 64.18 64.10 64.26 64.36 64.57
75.29 74.87 75.00 74.99 75.65 75.50 75.89 76.37 76.53 76.31 76.79 76.90 77.18 77.03 76.92 77.08 76.58 76.36 76.37 75.48 75.10 75.35 74.54 72.35 72.38 74.01 74.35 74.00 74.04 74.31 73.32 74.39 73.12 69.73 65.21 64.15 64.26 64.26 63.41 62.44 61.81 61.63 61.30
75.19 74.90 75.38 75.54 75.28 75.19 75.26 75.15 75.59 76.09 76.51 76.74 77.09 77.29 77.04 76.90 76.76 77.05 76.77 76.69 76.39 75.36 75.17 73.57 72.62 72.42 72.93 75.07 73.73 71.59 71.66 73.77 73.47 73.80 71.20 67.78 66.51 65.44 64.11 62.96 61.41 61.67 59.42
75.24 75.92 75.38 75.13 75.26 75.06 74.32 75.45 75.35 75.58 76.20 76.42 77.06 77.18 77.40 76.13 72.57 73.82 76.46 77.81 77.44 75.52 74.64 73.50 72.93 72.98 72.87 73.22 73.54 73.97 72.71 73.28 74.46 73.70 73.15 73.36 73.39 70.20 69.73 64.78 64.44 63.70 60.99
74.66 75.27 75.03 74.68 74.50 74.09 68.07 67.04 72.74 75.00 75.66 76.00 75.64 76.73 77.40 74.03 73.35 68.82 68.38 69.07 73.99 77.01 75.31 73.98 73.47 73.03 75.80 75.14 75.08 74.50 74.12 72.57 71.45 75.89 71.60 69.60 70.34 68.57 68.97 65.97 64.29 63.21 61.33
75.30 75.12 74.90 74.86 74.82 75.49 66.03 65.20 67.14 74.53 75.59 76.34 76.91 76.73 75.48 75.19 74.33 77.06 70.83 66.95 67.58 66.53 68.64 75.86 75.55 75.58 76.09 76.65 77.73 76.28 74.29 72.70 71.33 73.06 70.33 67.24 71.21 69.20 70.35 67.83 62.76 62.11 60.79
74.67 75.13 75.04 75.51 75.27 75.50 65.23 63.84 65.52 73.81 75.68 76.66 76.92 76.92 76.97 77.01 77.29 76.36 76.01 75.56 76.00 76.31 75.44 73.91 75.16 75.93 76.86 77.86 78.14 77.31 74.35 72.86 72.47 72.50 71.64 65.75 70.91 69.70 70.35 69.35 63.28 62.17 60.36
74.63 74.48 74.76 75.33 75.70 75.69 63.43 62.54 65.19 73.10 73.38 75.65 76.44 77.22 77.22 77.14 71.45 65.79 75.09 75.24 76.02 76.34 72.13 66.68 67.31 66.95 66.28 65.54 67.61 71.98 70.35 71.10 69.89 70.35 69.77 67.10 68.14 67.40 65.70 65.46 65.38 61.23 59.18
75.10 74.74 74.50 75.01 71.50 75.45 65.46 60.89 64.37 73.44 74.33 73.77 76.32 77.10 67.30 73.11 66.08 62.91 74.39 74.97 74.94 75.62 76.81 77.62 77.73 72.99 69.90 72.41 65.84 70.46 72.08 69.72 69.52 68.41 69.67 65.96 64.86 64.75 61.78 62.91 64.65 64.02 62.35

GFSMA_sfc_wetblb_072.txt.gz
Wetbulb
76.95 77.54 77.59 77.43 78.40 77.65 76.56 76.67 76.55 76.83 76.90 76.38 76.35 76.04 75.16 75.14 74.09 73.91 74.61 74.77 74.49 74.99 73.56 72.99 72.60 72.77 73.01 73.03 73.42 73.23 73.28 72.69 72.41 71.93 72.27 72.66 72.60 72.79 72.52 73.05 72.80 72.76 72.60
78.57 76.87 76.49 77.42 76.99 77.41 76.85 76.74 76.72 76.74 76.79 76.74 75.50 75.85 75.93 75.65 75.22 75.17 74.65 74.94 74.14 74.58 74.43 73.42 73.51 72.96 72.69 72.55 72.59 72.83 72.98 73.62 73.01 72.84 72.91 72.56 72.67 73.14 73.49 73.70 73.41 73.76 73.69
78.85 77.40 76.68 77.13 76.98 77.47 77.85 76.70 76.40 77.24 74.81 75.40 75.49 75.36 75.45 76.15 75.37 74.84 75.43 75.22 75.05 74.59 74.34 74.33 73.65 73.85 73.80 73.31 72.90 72.79 72.38 71.92 72.47 72.65 72.53 73.19 73.05 72.86 72.44 73.03 72.94 72.96 73.07
78.55 77.72 76.87 77.03 78.76 78.04 76.86 75.78 75.11 74.62 73.40 74.02 74.47 74.09 74.24 75.02 75.41 75.38 75.55 76.35 76.06 75.43 75.35 74.80 74.54 74.62 74.47 74.51 74.53 74.39 74.13 73.91 73.94 73.86 73.79 73.65 73.63 73.64 73.72 73.37 73.40 72.93 73.11
79.22 78.52 77.18 76.27 77.43 76.94 75.35 74.50 74.57 75.33 73.30 73.32 72.88 73.75 74.55 74.00 74.26 74.05 74.63 75.78 75.29 75.47 76.09 76.15 75.38 75.31 75.06 74.63 75.04 75.02 74.92 74.72 74.28 74.02 73.82 73.61 73.87 74.00 73.30 72.80 72.66 72.62 72.40
78.93 79.19 77.80 77.27 76.90 75.45 74.96 75.42 75.53 75.67 74.67 73.73 71.28 72.37 74.13 74.57 74.41 73.99 74.36 74.50 75.00 75.47 74.80 76.13 76.19 76.21 75.55 74.92 74.82 74.97 74.78 74.88 74.96 74.78 74.59 74.33 73.98 73.56 73.06 72.74 71.97 71.56 71.71
78.90 78.80 77.35 76.80 77.10 76.10 76.22 76.67 76.15 75.06 72.67 74.78 70.99 71.43 71.91 73.59 73.44 73.64 73.76 75.02 74.49 74.92 76.11 76.48 75.26 75.68 75.84 75.46 74.94 74.59 74.79 74.89 74.57 74.72 74.83 74.30 74.31 73.29 72.54 71.43 71.14 70.19 70.52
79.22 78.39 78.86 78.03 77.76 75.78 76.20 76.00 76.45 73.78 72.86 73.66 70.60 70.62 67.23 68.54 71.12 72.67 74.42 74.74 75.00 75.69 75.33 75.41 75.82 75.49 75.45 74.98 76.22 74.34 74.09 74.45 74.53 74.54 74.38 74.69 73.91 72.89 71.91 70.92 68.67 68.00 67.87
78.75 78.80 78.03 78.26 78.15 78.79 75.25 76.29 76.29 75.65 71.83 73.48 73.79 70.64 65.82 66.34 68.77 71.66 73.43 73.38 75.10 74.18 75.06 74.91 75.03 75.39 76.03 75.24 74.49 74.70 74.59 74.39 74.45 73.77 73.48 74.30 73.94 72.17 71.28 68.73 67.12 67.12 67.22
78.24 78.51 78.42 77.53 77.94 78.17 76.57 76.13 76.25 76.70 76.04 70.95 71.93 72.80 72.89 72.41 68.01 67.98 71.34 72.85 74.04 73.61 74.28 74.32 74.65 75.43 76.11 75.64 76.20 74.23 73.91 73.72 73.62 73.18 72.83 74.59 73.61 72.27 70.54 67.67 67.21 67.33 67.56
78.39 77.87 78.64 78.72 78.72 77.16 77.17 76.96 76.07 76.56 76.20 74.45 72.01 70.79 73.73 72.83 73.62 69.48 68.55 70.05 72.44 73.85 74.13 74.31 74.40 74.56 75.53 75.93 75.26 75.66 74.18 73.59 73.96 73.41 73.60 75.05 74.16 72.48 69.57 68.20 67.96 67.63 67.97
76.56 78.13 78.10 78.79 78.55 77.46 77.47 77.40 78.43 77.04 77.10 76.31 75.04 73.63 71.00 70.67 71.05 71.20 70.15 70.79 71.02 73.25 74.36 73.84 74.19 74.46 74.97 75.25 76.26 74.78 74.24 73.23 73.03 72.96 73.18 75.15 74.64 73.07 69.85 69.63 69.34 69.06 69.06
74.34 76.50 78.55 78.47 77.93 79.06 78.25 78.31 78.04 77.67 76.59 76.48 76.83 73.80 73.87 72.85 73.36 71.61 70.12 69.38 69.92 71.13 72.49 73.32 73.81 74.63 74.72 75.48 75.67 74.25 73.84 72.16 72.06 71.52 70.92 72.74 73.78 73.78 71.58 71.28 71.14 70.77 70.60
74.42 76.62 77.57 78.03 78.49 78.32 78.64 79.04 78.22 76.96 78.20 76.76 77.35 77.36 74.66 74.86 75.09 73.53 71.58 69.87 68.03 68.77 71.34 72.41 73.92 74.07 74.72 74.88 75.85 74.02 74.83 70.83 70.72 69.95 69.27 69.76 71.21 71.83 70.87 71.06 71.58 71.98 72.07
75.67 76.34 76.70 77.27 77.52 78.00 78.45 78.99 77.30 77.85 78.20 78.22 78.18 78.02 77.31 75.78 75.84 75.32 74.17 72.55 69.74 66.70 67.96 72.40 71.88 75.89 74.79 74.78 75.78 75.60 75.87 72.36 69.80 69.35 68.41 68.19 68.71 69.68 69.48 69.19 69.66 70.52 70.86
77.04 76.72 76.43 76.18 76.65 77.56 78.13 78.84 77.71 78.33 78.49 77.74 77.20 77.64 78.03 76.23 76.59 76.41 75.37 74.02 73.52 71.42 68.62 71.35 71.86 74.28 75.45 74.49 74.98 75.75 75.60 72.00 69.82 68.63 68.08 67.45 67.53 68.19 68.25 67.79 67.75 68.26 68.84
77.51 77.57 76.96 76.58 76.08 76.76 77.87 78.16 78.11 77.56 77.63 78.46 78.69 78.43 78.45 79.14 76.20 75.21 75.77 75.41 73.96 73.41 71.01 71.86 72.41 75.16 76.48 75.53 75.75 76.30 75.81 75.78 74.98 68.34 67.95 67.34 66.79 66.96 67.19 66.94 66.31 66.60 67.36
77.94 77.75 77.78 77.34 76.86 76.65 77.75 77.91 77.55 76.79 77.35 77.53 78.15 78.65 78.34 78.27 78.96 79.01 76.80 78.06 76.75 77.33 74.17 75.29 75.97 74.52 77.80 79.23 77.97 76.55 75.44 75.31 75.59 71.73 67.04 66.57 66.03 65.70 65.74 65.25 64.72 64.30 64.84
77.47 77.65 77.69 77.17 76.99 76.26 76.47 77.31 77.51 77.30 77.18 77.66 78.44 78.47 78.62 78.85 78.64 78.26 78.28 77.00 76.41 76.12 76.61 74.82 74.14 74.54 74.57 75.51 76.38 78.84 78.49 78.77 76.79 72.16 67.30 65.72 65.09 65.12 64.71 64.30 63.32 61.80 61.97
77.42 77.47 77.87 77.58 77.28 76.96 76.22 76.08 76.40 77.17 77.27 77.34 78.22 78.68 78.93 78.88 78.73 78.81 78.73 78.70 78.39 77.28 77.24 75.34 74.39 74.15 74.81 77.59 76.42 74.70 74.91 76.48 76.24 77.28 74.55 71.20 68.67 66.61 65.07 63.73 63.58 62.43 60.53
77.36 77.82 77.57 77.46 77.40 77.00 75.77 76.48 75.87 75.65 76.48 76.95 77.59 77.99 78.44 77.29 73.19 74.45 77.80 80.05 80.71 77.32 75.43 74.41 73.59 73.48 73.25 73.60 75.28 75.48 75.01 75.74 77.57 78.79 77.21 76.36 75.12 76.06 74.59 65.87 66.23 64.47 61.83
77.81 77.74 77.31 77.33 76.90 76.12 68.58 67.12 72.75 75.30 75.73 76.63 76.28 77.50 78.04 75.04 74.30 69.48 68.93 69.04 73.01 77.65 78.97 75.90 74.28 73.73 77.78 77.26 76.19 75.30 75.03 75.05 74.34 78.47 74.14 71.76 75.47 74.82 74.70 73.82 68.34 63.97 61.87
77.87 77.76 77.21 77.36 77.23 77.77 66.21 65.11 67.41 75.27 75.53 76.96 78.04 77.76 76.14 74.98 74.31 77.18 71.04 67.72 68.37 67.14 68.35 75.37 75.90 76.31 76.82 77.69 78.65 78.19 78.73 76.48 75.56 76.22 76.43 71.82 75.02 73.85 75.33 73.86 65.04 62.76 60.88
78.43 78.40 77.27 77.93 77.46 77.69 65.80 63.97 65.63 75.29 76.80 77.56 78.12 78.68 78.84 78.43 78.59 77.68 77.40 76.77 77.11 77.34 77.00 75.67 76.28 76.66 77.14 78.73 79.30 78.87 77.05 76.79 76.15 75.93 76.88 69.47 73.69 72.90 70.64 70.33 65.15 62.53 59.92
77.72 77.61 77.74 78.37 78.29 78.27 63.82 63.07 66.63 75.00 74.77 76.81 77.33 78.49 79.06 79.11 72.63 66.79 76.27 76.62 76.99 77.10 72.08 66.15 66.89 67.17 66.95 66.63 68.94 73.74 72.23 73.78 72.41 72.75 72.17 70.39 68.54 67.81 65.94 66.50 65.13 60.97 58.46
76.53 76.46 76.65 77.85 73.53 78.54 66.29 60.83 66.30 75.07 75.58 74.57 77.93 79.24 68.25 73.86 66.47 63.36 76.02 76.11 76.24 75.82 76.51 77.59 78.92 74.43 69.31 75.43 66.27 75.33 75.73 73.34 73.20 70.37 71.32 69.48 66.97 65.54 63.24 64.16 64.45 63.12 60.25

GFSMA_sfc_wetblb_075.txt.gz
Wetbulb
76.71 77.32 78.50 76.22 76.03 76.67 76.19 75.89 75.68 75.65 75.65 74.76 75.11 74.42 73.57 73.25 73.10 73.99 74.39 74.84 75.30 74.19 73.70 73.23 72.90 73.04 73.74 73.66 73.89 73.54 73.30 72.81 71.97 71.97 72.66 73.07 73.00 73.16 73.40 73.30 73.42 73.46 73.32
77.65 77.96 77.05 76.06 76.24 75.10 75.36 76.33 76.43 72.88 74.18 74.40 74.37 73.04 72.17 73.66 73.96 75.39 73.65 74.60 75.14 74.95 74.39 73.76 73.51 72.68 72.32 72.08 72.14 72.44 72.84 73.59 73.14 72.80 72.57 72.29 72.31 72.13 72.36 73.28 73.20 73.20 73.22
78.24 78.10 77.96 76.17 76.29 77.10 77.84 77.11 76.67 76.37 75.84 72.32 71.86 74.06 73.96 74.79 73.72 73.94 74.54 74.09 74.88 75.34 75.36 74.58 73.42 74.11 73.92 73.32 72.85 72.74 72.68 72.03 72.32 72.51 72.53 72.85 73.08 72.82 72.50 72.15 72.87 73.24 72.93
78.18 78.18 77.09 76.71 77.28 76.64 74.37 75.99 75.14 69.99 74.29 70.74 72.41 70.74 75.41 74.84 74.09 74.52 73.70 75.17 75.00 75.36 74.92 75.14 74.93 74.57 74.22 74.60 74.68 74.73 74.60 74.15 74.13 73.94 73.71 73.72 73.47 73.30 73.39 73.37 73.23 72.83 72.74
77.67 77.97 77.31 76.86 78.31 76.19 77.60 74.88 72.54 71.70 73.81 72.14 72.59 73.31 74.02 73.01 73.04 73.28 74.22 74.58 74.31 75.18 75.38 75.73 76.00 75.50 75.30 74.91 75.24 75.41 75.14 75.04 74.95 74.22 74.05 73.83 73.97 74.01 73.58 73.04 72.79 72.48 72.48
78.30 78.31 77.19 77.56 77.48 76.82 74.72 75.30 77.64 73.36 69.58 71.75 70.16 72.48 72.24 74.08 72.31 72.38 73.09 73.98 73.89 73.94 74.12 74.89 75.71 74.62 75.91 75.53 75.32 75.34 75.22 74.98 75.15 75.01 74.87 74.48 74.28 73.81 73.14 72.79 72.22 71.56 71.37
78.37 78.02 77.27 77.64 77.18 75.88 73.36 76.54 75.34 74.42 71.76 72.85 70.55 71.72 70.97 71.64 72.45 72.04 72.68 73.39 73.31 73.66 74.07 74.24 74.43 76.05 75.03 76.29 76.05 74.98 74.74 74.64 74.66 74.65 75.20 74.88 74.08 73.78 72.97 71.77 71.38 70.26 70.27
78.85 78.12 78.39 76.94 76.87 76.04 76.62 76.08 74.94 73.09 73.22 72.94 70.25 71.86 66.74 68.25 70.63 71.69 72.79 72.83 73.40 74.00 73.93 74.63 74.86 74.66 74.92 75.15 76.23 75.43 74.80 74.79 74.68 74.65 74.69 74.60 74.49 73.78 72.53 71.70 70.17 68.57 68.41
78.41 78.53 78.40 74.86 77.43 77.07 75.48 76.88 76.33 76.62 70.61 71.46 74.71 71.56 67.84 65.98 70.19 70.95 72.37 72.70 73.92 73.25 74.08 74.49 74.70 75.63 76.12 75.15 75.48 75.54 75.82 75.26 74.61 74.44 73.66 73.98 74.88 73.75 72.27 71.41 68.46 67.84 67.71
77.88 78.28 78.03 78.27 78.63 76.06 77.80 77.00 76.98 77.50 76.65 71.49 70.45 72.01 73.21 73.34 68.57 69.75 71.24 72.48 73.65 73.20 74.19 73.89 74.49 75.60 76.25 75.71 76.97 74.25 75.79 75.37 75.00 74.39 73.34 73.43 74.82 73.52 72.43 70.24 68.73 68.90 68.51
78.15 77.24 78.58 78.21 78.23 77.01 78.05 77.58 77.26 77.65 75.33 74.24 70.33 70.31 73.40 71.83 73.97 70.06 69.60 70.17 72.33 72.93 73.67 74.60 74.07 74.41 76.01 76.27 75.46 76.12 74.81 74.80 74.45 74.80 74.16 73.84 75.24 74.07 72.60 69.83 68.36 68.30 68.36
76.84 78.13 77.90 78.47 79.31 78.65 77.92 77.64 78.01 77.68 78.34 77.26 74.79 72.90 70.87 70.13 70.94 70.39 69.80 70.91 70.63 72.15 73.24 73.46 74.05 74.34 74.79 75.31 76.68 76.35 74.97 73.90 73.30 73.50 73.57 73.73 75.50 74.67 73.11 70.72 69.50 68.98 69.08
74.31 78.97 79.70 79.69 78.43 79.24 78.82 79.26 79.07 78.11 77.48 76.46 77.13 73.73 72.42 72.34 72.50 71.38 70.29 69.56 69.56 71.28 71.74 73.42 73.63 74.49 74.61 75.48 75.78 75.31 74.64 72.95 72.22 71.59 71.54 71.70 73.84 74.80 74.37 72.82 71.51 70.88 70.33
74.81 80.91 78.76 78.22 78.27 78.92 77.93 79.39 77.51 76.98 79.22 76.90 77.35 78.32 75.56 73.91 73.99 73.25 71.60 70.43 68.76 69.37 71.21 72.97 73.47 74.12 74.67 75.10 75.27 74.80 74.56 71.00 70.69 70.12 69.84 69.92 70.50 72.38 73.33 72.83 71.28 71.74 71.79
75.46 76.53 76.90 78.24 78.33 78.33 79.17 80.92 77.05 77.56 77.88 78.04 78.07 78.57 76.78 75.01 74.93 74.51 73.96 72.96 70.32 67.39 68.51 73.19 72.25 77.06 75.13 74.58 75.59 75.56 76.55 72.76 69.90 69.36 68.54 68.37 68.68 69.48 70.65 71.37 70.10 70.08 70.82
78.98 77.39 77.12 76.91 77.60 78.66 78.98 80.80 78.82 79.89 78.69 76.97 77.19 79.99 79.62 76.53 77.30 75.89 75.25 74.45 73.33 71.24 69.01 72.09 72.45 76.31 78.23 74.82 75.80 76.86 76.74 71.82 70.27 68.79 68.23 67.40 67.84 68.14 68.53 68.85 69.07 68.39 69.08
80.23 79.48 78.59 77.51 77.19 77.38 78.69 80.27 80.12 79.27 79.23 79.67 78.85 78.81 78.91 80.75 76.21 75.33 75.48 75.32 74.48 73.54 71.06 72.75 74.11 76.74 81.05 79.66 77.82 78.24 77.22 78.55 76.31 68.56 67.91 67.25 66.76 67.00 67.49 67.52 67.31 67.10 67.46
80.30 80.20 79.68 78.99 78.05 77.47 79.28 78.98 77.17 77.49 77.25 77.31 77.82 79.57 78.42 77.32 80.51 80.53 76.94 79.22 76.59 77.95 74.20 75.55 76.26 75.55 78.16 79.88 80.58 81.24 78.17 77.19 77.61 73.58 67.84 66.86 66.28 65.92 65.83 65.89 65.80 65.40 65.16
79.92 79.42 79.74 79.69 79.04 77.99 78.31 78.94 79.25 78.20 77.09 77.59 78.40 79.20 78.98 79.81 80.36 78.56 80.36 78.10 76.59 77.29 76.99 75.23 74.93 75.97 76.22 76.57 77.63 79.65 80.00 78.94 78.02 73.71 69.25 66.96 65.44 65.19 64.49 63.82 64.01 63.06 61.99
79.79 79.70 80.35 80.32 79.77 79.03 78.28 77.51 78.05 78.94 78.99 77.76 78.64 79.10 79.10 79.59 80.13 80.73 79.81 80.71 79.37 78.10 76.62 75.10 74.88 75.26 76.00 78.99 77.75 75.99 76.19 76.78 76.92 77.45 75.30 72.77 68.69 67.08 65.23 63.62 63.97 62.89 59.99
79.80 80.41 80.25 80.09 79.67 78.66 77.16 78.05 77.95 78.31 79.04 78.57 78.53 78.72 79.18 78.01 73.65 75.16 77.55 79.53 80.59 78.11 75.56 74.89 74.41 74.01 73.56 74.15 75.63 76.19 75.70 76.22 77.63 80.48 78.38 79.60 77.64 77.50 78.47 65.51 67.52 65.60 62.14
79.90 80.09 79.92 79.92 79.23 77.15 69.77 67.87 74.90 77.04 77.89 78.21 77.99 79.27 79.90 75.94 74.26 69.61 69.18 69.38 73.70 78.26 78.77 75.53 74.66 74.12 76.70 76.17 76.26 75.07 75.55 74.57 74.17 79.29 77.08 76.42 78.70 75.90 77.20 75.35 66.25 65.78 62.75
79.91 79.72 79.82 79.91 79.73 80.04 66.36 65.55 67.90 77.13 77.52 77.85 78.44 78.71 77.91 75.11 75.13 79.11 71.54 68.51 69.16 67.49 68.99 76.45 76.31 76.41 76.53 78.00 78.33 77.29 77.69 77.75 76.25 77.53 77.52 74.51 76.72 74.33 73.09 71.61 63.69 63.30 61.04
79.50 79.64 79.89 80.05 79.97 79.55 66.21 63.84 65.95 76.69 76.83 77.67 78.62 79.34 79.23 78.32 77.94 78.22 79.40 79.00 78.44 78.72 77.65 75.12 76.95 77.38 78.49 79.46 80.23 78.48 78.78 77.82 77.67 77.86 77.53 71.73 74.02 71.73 69.74 67.80 62.53 61.22 59.09
79.94 79.83 80.43 80.17 80.17 80.04 64.51 62.76 66.68 76.02 76.02 77.52 78.65 79.05 78.92 78.79 72.97 67.62 77.29 76.69 76.98 77.42 72.34 65.49 66.30 66.62 66.62 66.16 69.26 75.35 74.44 74.61 74.03 75.14 73.59 73.40 70.26 68.95 67.17 64.74 63.25 59.23 57.50
79.69 78.29 79.05 80.34 75.89 80.54 66.78 61.59 66.29 75.70 76.00 75.27 77.86 78.85 68.95 74.43 67.65 64.32 77.09 77.78 76.66 77.67 78.25 78.44 79.15 75.10 67.98 73.50 66.07 74.42 76.82 75.37 76.15 70.89 72.94 71.19 67.81 66.61 63.88 65.91 64.05 62.41 61.15

GFSMA_sfc_wetblb_078.txt.gz
Wetbulb
75.43 75.51 76.34 73.06 73.68 74.10 72.97 72.16 73.84 73.36 73.04 73.81 74.22 71.74 73.33 72.99 73.27 73.21 73.32 76.49 75.97 75.71 75.19 74.48 73.81 74.19 74.13 74.15 73.93 73.75 73.24 72.81 71.89 72.05 72.76 73.01 73.42 73.28 73.73 73.52 73.54 73.50 73.41
77.16 77.97 76.26 74.08 73.09 74.55 74.00 73.09 72.15 73.57 73.97 74.77 72.89 73.35 73.04 73.14 74.16 72.67 72.99 74.62 76.23 75.43 74.75 73.40 72.96 72.68 72.29 72.05 72.25 72.33 72.60 73.47 72.98 72.45 72.44 72.27 72.55 72.55 72.18 72.46 73.32 73.31 73.19
78.39 76.47 76.54 76.80 74.10 74.27 77.14 76.20 73.34 73.37 73.26 70.83 74.38 74.80 74.81 73.05 73.26 73.03 72.68 73.10 74.82 76.35 76.09 75.44 74.86 74.27 74.08 73.43 73.05 72.93 72.58 72.33 72.27 72.75 72.87 73.20 73.79 73.57 73.62 73.28 72.98 73.32 73.08
79.66 77.96 77.62 77.56 77.83 73.98 75.84 75.45 72.93 71.95 73.35 69.95 71.69 69.91 74.39 73.40 73.73 74.31 74.60 72.93 72.99 73.14 76.01 76.43 75.71 75.68 74.93 74.76 74.76 74.69 74.75 74.86 74.54 74.25 73.99 73.87 73.65 73.58 73.56 73.60 73.38 73.06 72.94
79.53 79.47 75.68 78.31 79.83 76.63 76.91 76.05 70.71 70.09 74.09 72.38 71.45 73.87 73.03 72.34 71.58 72.64 73.38 74.13 74.69 73.82 73.18 75.82 76.12 76.00 75.38 75.16 75.12 75.29 75.30 75.81 75.66 75.34 74.86 74.57 74.19 74.10 74.16 73.53 73.09 72.84 72.08
79.24 79.52 77.89 78.94 78.93 76.09 75.64 73.40 73.38 74.37 70.68 71.39 69.80 71.01 70.56 73.74 72.61 72.39 72.86 72.78 73.45 73.63 74.78 72.98 74.40 74.80 76.27 76.10 76.02 76.18 75.94 75.68 75.81 75.77 75.56 75.51 75.09 74.46 73.96 73.24 72.72 71.87 71.26
79.10 79.21 78.33 79.02 78.96 71.82 73.85 77.05 77.29 76.09 73.81 70.25 69.79 72.06 72.26 70.95 71.14 72.05 72.89 71.35 72.49 72.64 74.09 74.92 74.99 74.27 73.78 76.38 76.49 76.35 75.87 75.44 75.68 75.75 75.75 75.61 75.31 74.66 74.14 73.37 72.57 71.20 70.36
79.61 77.97 75.79 78.38 78.94 76.43 78.01 76.00 73.42 72.80 74.39 73.36 71.16 71.04 67.39 69.55 70.53 70.90 72.24 72.67 72.57 72.93 72.94 73.89 74.07 74.06 74.28 73.22 74.60 76.33 75.98 76.02 75.41 75.51 75.68 75.56 75.41 74.96 74.02 73.20 72.25 70.47 70.30
79.47 76.38 78.41 78.91 79.18 78.51 76.26 78.02 77.28 74.73 73.39 72.68 73.82 71.69 65.27 65.86 69.01 71.62 71.73 72.17 72.88 72.46 73.52 74.00 74.50 75.28 74.76 75.07 75.60 75.29 76.05 75.36 75.79 75.16 75.50 75.18 75.04 75.18 74.21 72.99 71.85 70.01 69.74
79.00 79.36 79.25 78.91 79.92 77.75 76.01 76.55 77.22 72.42 73.56 72.38 71.76 72.51 74.04 72.58 67.41 67.48 71.97 72.56 72.46 72.89 72.58 73.26 73.77 74.99 75.96 75.21 76.65 76.51 76.22 75.11 75.11 75.78 75.54 74.81 74.63 75.28 74.26 73.41 71.54 69.79 69.59
80.09 77.75 78.96 79.75 79.89 78.50 77.95 77.69 78.03 76.42 73.37 74.46 71.10 71.73 73.46 72.98 71.53 69.03 66.70 70.22 72.03 72.62 73.74 73.95 73.64 74.45 75.39 75.20 75.44 74.82 75.44 74.46 74.46 74.89 75.19 74.83 74.58 75.31 74.46 73.26 70.78 69.59 68.99
78.44 79.82 78.77 79.57 79.68 77.09 78.64 78.53 79.03 78.32 78.46 77.65 76.70 73.57 71.75 70.85 69.82 69.14 68.07 69.95 70.34 72.00 72.64 73.83 74.43 73.28 74.78 75.24 76.65 76.35 74.81 74.06 73.58 73.44 73.56 74.24 73.94 75.36 75.22 73.73 71.69 69.52 69.06
75.35 77.31 80.16 79.36 78.71 79.12 78.82 79.64 79.51 79.12 78.96 77.80 77.68 75.79 74.70 73.29 73.20 72.68 71.03 69.58 69.97 71.73 71.94 73.16 73.90 74.49 74.62 75.20 75.68 75.61 74.86 73.03 72.44 71.70 71.46 72.21 72.41 73.24 75.51 74.93 73.60 71.04 70.12
75.24 77.28 77.90 78.96 79.49 79.20 78.97 78.90 78.39 78.23 78.68 77.93 78.10 78.63 77.03 75.57 74.97 73.34 72.81 71.45 68.57 69.25 71.67 71.55 73.48 74.07 75.28 74.79 75.00 74.86 74.11 71.50 71.15 70.13 69.52 70.05 70.69 70.81 72.22 74.18 73.39 71.99 71.47
77.49 77.67 78.09 78.82 78.85 79.03 78.74 79.19 77.34 77.66 78.75 78.45 78.29 78.45 77.88 75.83 75.64 75.44 75.00 73.73 71.38 67.25 67.48 73.32 72.80 75.46 74.10 74.01 75.57 73.85 75.07 72.48 70.16 69.46 68.49 68.44 68.87 69.18 69.54 71.13 71.97 70.86 70.32
79.75 78.07 78.12 77.98 78.40 79.40 79.43 79.12 77.45 78.50 78.18 77.21 77.60 77.94 78.36 76.52 76.85 76.92 75.81 75.30 74.88 72.17 68.76 72.14 72.50 74.38 77.02 74.71 75.25 74.46 74.70 72.82 70.92 68.88 67.90 67.36 67.67 68.08 68.60 68.73 69.51 69.78 69.16
79.72 79.53 79.47 78.57 78.17 77.94 79.14 78.91 78.07 77.91 77.16 77.55 77.42 78.19 77.07 78.02 76.74 76.43 77.38 76.97 75.08 74.32 71.14 72.31 74.93 75.78 77.75 76.64 76.42 76.31 76.89 76.06 75.61 70.84 68.26 67.20 66.69 66.96 67.49 67.67 67.59 68.16 68.42
80.37 81.05 78.89 79.51 77.89 77.56 77.94 78.05 77.20 75.72 77.29 77.03 77.74 77.66 77.98 77.80 78.37 78.49 76.83 76.63 75.91 76.64 74.43 72.07 74.15 74.26 74.90 75.62 76.66 78.87 77.79 77.18 76.08 73.75 69.96 67.39 66.16 65.67 65.28 65.83 65.51 65.87 65.96
77.55 78.32 79.19 77.77 78.20 77.19 76.99 77.79 77.77 76.83 76.87 77.04 77.39 78.03 77.65 78.27 78.03 78.07 78.56 77.38 77.30 77.13 76.14 74.23 73.85 76.24 74.84 74.37 74.07 75.82 77.02 76.67 78.00 73.64 69.00 67.08 65.63 64.97 64.54 63.98 63.81 63.93 63.05
76.95 77.70 77.62 78.25 78.21 77.83 77.25 76.56 77.42 77.41 77.36 77.03 77.59 77.31 78.08 77.84 77.69 78.58 78.37 78.22 77.98 77.31 76.34 75.27 74.17 73.78 74.35 75.42 77.03 74.61 73.33 74.88 75.53 76.51 73.00 70.55 69.17 67.70 65.54 63.75 62.75 63.01 61.41
77.01 77.65 77.74 78.01 78.36 78.21 77.48 76.75 76.36 76.88 77.05 77.16 77.64 77.34 77.42 77.39 74.53 75.60 77.93 78.32 77.89 77.31 76.06 75.01 74.37 73.87 72.59 73.93 73.14 74.49 72.97 73.22 74.51 76.48 77.24 76.82 76.51 75.89 73.74 66.41 65.83 65.14 62.91
77.08 77.58 77.48 77.75 77.86 78.01 71.11 68.75 74.25 75.17 76.74 76.34 75.97 76.78 77.65 74.64 73.68 70.14 69.05 69.16 72.97 75.56 74.63 74.49 73.67 72.53 73.27 74.59 74.59 73.13 73.56 72.40 72.55 78.86 76.32 75.38 76.59 73.47 71.09 65.31 62.30 61.78 61.44
76.86 77.32 77.37 77.55 77.59 78.01 68.28 66.50 68.81 75.46 75.14 75.54 76.63 76.35 76.62 76.59 73.55 76.70 70.80 68.24 68.18 67.55 69.20 73.77 72.95 73.04 73.14 74.24 75.21 74.76 74.86 75.30 74.32 76.30 76.40 73.65 74.72 70.72 68.47 65.49 60.94 60.65 60.64
76.84 76.71 77.14 77.65 77.74 78.09 68.35 64.74 66.36 74.14 75.49 76.03 76.24 75.78 75.97 75.77 75.80 76.70 77.46 76.75 75.74 75.30 73.61 71.81 72.56 74.21 75.58 76.73 76.87 76.52 76.31 75.77 76.23 76.27 75.90 71.18 72.32 67.33 66.53 64.01 60.62 59.65 58.62
76.97 77.05 77.26 77.60 77.67 77.62 65.94 64.67 65.36 72.63 73.73 74.79 75.30 75.53 76.18 76.93 72.20 68.09 73.50 73.29 73.33 73.92 71.89 66.15 68.09 68.91 69.39 68.77 70.54 72.95 71.16 72.12 72.58 74.46 73.95 72.40 67.93 66.74 65.08 63.35 61.94 58.58 56.88
77.28 77.54 77.56 78.03 74.91 78.21 67.25 62.78 65.05 74.92 73.91 74.05 75.28 75.72 68.28 72.75 67.28 64.79 73.77 74.99 74.34 75.12 76.20 76.45 76.78 74.07 67.01 70.33 64.94 70.79 72.96 72.73 74.15 72.01 72.80 70.65 66.54 66.54 63.50 64.21 63.41 61.69 59.02

GFSMA_sfc_wetblb_084.txt.gz
Wetbulb
70.39 70.70 71.22 71.14 71.57 70.90 70.35 70.13 69.91 70.47 71.24 71.52 71.02 70.30 70.00 70.53 71.39 72.40 71.89 74.97 76.13 75.93 74.79 74.50 74.76 74.71 73.70 73.48 73.36 73.34 73.45 73.01 71.60 72.01 72.44 71.66 71.65 71.53 71.55 71.73 72.65 72.69 72.62
70.72 67.79 70.59 70.77 70.09 69.19 69.52 70.92 69.42 69.92 70.93 70.96 70.91 69.29 70.08 70.21 70.98 71.91 72.05 73.13 75.70 75.98 75.32 73.92 73.86 74.17 73.96 74.33 73.83 73.35 72.63 72.85 73.27 72.85 72.59 72.31 72.34 72.63 72.58 72.63 72.23 72.66 72.97
70.91 71.11 69.98 70.32 69.75 68.04 69.27 70.21 69.52 69.83 69.12 69.27 68.70 69.09 69.89 70.06 70.39 70.95 72.11 71.97 73.96 75.64 75.13 73.95 74.02 73.64 72.94 72.70 72.78 72.73 72.98 73.02 72.71 73.17 73.08 72.72 73.05 73.61 73.34 73.44 73.22 73.10 72.70
72.44 71.24 70.61 69.93 70.63 69.69 69.61 69.89 68.90 68.93 67.75 67.20 67.11 68.29 68.69 69.11 69.24 69.75 71.50 71.87 72.15 72.43 74.19 75.10 75.07 74.60 74.17 74.04 73.62 73.55 73.60 73.89 74.14 73.98 73.99 73.96 73.81 73.69 73.39 73.47 73.45 72.95 72.55
74.69 73.01 72.87 70.61 71.73 70.12 70.10 70.11 68.94 67.70 67.32 66.89 67.33 68.30 69.24 67.70 68.33 70.24 69.97 70.97 71.37 72.06 72.16 74.74 75.94 75.87 75.47 75.72 75.28 75.13 75.14 75.91 75.99 75.54 74.89 74.84 74.44 74.17 73.92 73.99 73.12 72.63 71.66
74.21 74.12 72.15 72.00 72.57 70.78 70.73 69.79 67.63 68.33 68.18 67.33 68.68 67.97 68.02 68.14 68.11 69.19 69.38 70.69 70.50 71.02 71.23 72.03 73.60 73.80 75.89 75.96 76.34 76.18 75.51 76.12 76.44 76.37 76.02 75.71 75.31 75.17 74.82 74.27 73.18 72.45 71.51
74.06 73.46 72.83 72.75 71.22 69.55 70.33 70.06 69.46 67.82 68.41 66.86 64.10 65.31 66.00 66.37 66.77 67.34 69.26 69.38 70.12 70.55 70.36 70.11 71.13 72.14 72.56 76.04 76.44 76.87 75.90 75.80 77.16 76.82 76.22 75.70 75.34 74.81 74.58 73.88 73.14 72.34 71.36
73.47 72.69 72.56 70.65 69.88 68.40 70.09 69.10 68.83 67.93 68.33 66.93 65.59 64.40 61.06 61.99 63.36 66.39 66.70 67.75 69.08 70.21 70.99 71.00 69.79 70.57 70.89 71.06 73.11 76.14 76.54 76.56 76.06 76.62 76.39 75.84 75.30 74.92 74.60 74.09 73.02 72.42 71.45
73.77 71.69 73.00 72.41 72.34 71.40 70.01 70.07 69.83 68.53 65.96 67.84 66.64 65.06 60.41 59.37 61.61 64.84 64.97 66.10 66.39 67.36 70.62 71.18 70.95 71.15 71.03 70.66 72.40 73.72 75.89 75.62 76.24 75.96 76.59 76.04 75.33 74.62 74.81 74.51 73.46 72.45 71.27
73.40 73.21 72.80 72.91 72.36 72.16 70.45 70.86 71.08 68.49 67.60 66.36 67.03 65.39 66.35 64.87 60.66 60.59 64.55 65.92 66.64 66.17 67.61 68.31 69.84 70.48 71.12 71.48 72.85 73.69 74.64 75.17 75.54 76.02 76.54 76.29 75.79 75.15 74.83 74.81 74.35 72.82 71.51
73.10 73.56 72.50 73.06 72.63 71.44 70.97 71.50 71.82 70.52 69.37 68.09 67.17 63.73 64.55 65.38 64.31 62.34 60.40 63.91 66.52 67.41 66.79 67.49 68.53 68.96 70.01 70.11 70.75 72.52 74.53 74.43 74.75 75.11 75.32 75.54 75.89 75.87 74.50 74.24 74.84 73.73 72.05
72.98 73.26 73.47 72.94 72.85 72.29 71.74 71.44 71.59 70.94 71.78 71.16 70.30 66.80 63.95 64.18 62.99 63.40 62.21 62.73 63.89 65.82 67.33 68.12 67.32 68.32 69.81 70.77 72.61 73.93 74.14 74.05 73.63 73.74 73.79 74.28 74.89 75.87 75.22 74.26 74.18 74.62 73.35
72.04 72.00 72.69 73.27 73.10 72.61 72.45 72.51 72.41 72.47 71.97 71.14 71.27 69.44 70.17 69.51 67.30 65.41 63.66 63.28 63.10 64.75 65.75 67.24 68.12 68.40 69.74 70.31 71.67 73.68 74.10 72.61 71.96 71.51 71.32 71.39 72.23 73.39 74.81 75.09 74.38 75.33 74.54
71.66 72.52 72.22 73.15 73.07 71.68 72.22 72.89 72.30 72.30 72.76 72.12 70.83 71.06 71.20 70.20 70.32 66.92 64.65 63.81 61.82 62.33 63.50 64.68 67.93 68.32 69.01 68.74 70.63 72.99 72.27 70.95 70.43 69.81 69.24 69.56 70.30 71.01 71.86 72.85 73.27 73.49 74.82
71.41 71.88 73.41 73.34 72.90 72.76 72.33 72.93 71.76 71.89 72.55 72.28 71.46 70.71 70.42 71.11 70.25 70.79 68.28 65.91 63.54 60.74 61.49 64.70 66.54 68.77 70.83 69.69 70.38 70.13 70.80 69.96 69.58 69.17 68.27 67.99 68.66 69.38 69.88 70.50 71.06 71.38 72.08
70.82 71.20 72.94 74.06 73.19 72.93 72.84 72.90 71.70 72.15 72.16 71.42 71.70 71.39 71.13 71.44 71.56 71.46 70.86 68.68 67.56 64.06 62.61 65.01 66.64 67.94 70.55 73.86 73.14 72.76 70.66 69.72 69.60 68.70 68.18 67.22 67.14 67.80 68.35 68.67 68.72 69.15 69.92
70.88 72.21 71.91 73.88 73.41 73.04 72.34 71.96 72.25 71.74 71.89 71.46 71.19 71.39 71.78 72.02 71.22 70.93 70.22 70.89 69.92 67.95 65.67 66.93 68.25 71.15 70.53 70.67 72.59 72.59 72.82 72.43 72.94 69.90 68.76 67.62 66.71 66.32 66.52 67.01 67.17 67.59 68.04
73.10 73.05 72.49 73.59 73.52 72.81 72.64 72.13 71.61 72.46 72.04 72.18 72.35 71.60 71.66 73.17 72.15 71.63 70.54 70.32 70.26 70.24 69.75 67.34 68.18 70.07 70.70 72.01 72.34 72.24 72.92 74.90 74.27 72.36 67.96 66.80 65.49 64.58 64.30 64.13 64.23 64.49 64.75
71.36 73.38 73.08 72.70 73.12 73.00 72.38 72.74 72.76 72.29 71.58 71.53 72.25 72.29 72.27 72.09 71.66 72.50 72.43 72.06 71.66 72.73 71.28 69.82 70.34 70.85 71.43 71.26 70.69 71.00 71.46 72.09 72.60 71.41 69.52 65.74 64.38 63.63 62.46 61.49 61.12 60.65 59.84
71.39 72.34 73.04 72.85 72.97 72.80 72.50 72.05 72.25 72.06 71.92 71.88 72.34 72.99 73.09 72.72 72.15 71.86 71.85 72.25 72.79 72.14 71.68 70.90 70.41 70.95 70.63 71.82 70.90 69.70 69.19 69.70 70.35 73.89 71.97 67.84 65.62 64.57 62.75 61.02 61.34 61.28 59.66
72.13 73.17 73.56 73.06 73.12 72.95 73.10 71.56 72.14 72.14 71.66 71.66 72.18 72.74 72.81 72.61 71.63 71.62 72.90 72.45 72.62 72.30 71.90 71.25 71.20 70.19 69.71 68.92 67.95 68.77 68.49 68.49 70.74 71.33 73.35 72.49 68.94 66.29 62.62 60.89 61.81 62.30 60.20
71.80 71.48 72.82 73.48 73.00 74.22 69.09 68.34 70.93 71.70 72.71 72.34 71.75 72.18 72.89 72.07 71.37 68.94 68.89 68.96 72.26 72.62 71.98 70.98 70.16 69.96 70.22 67.48 68.06 68.45 67.79 68.22 67.84 73.42 72.62 72.02 68.49 63.57 62.20 59.82 60.96 60.25 59.47
67.69 71.48 71.68 72.42 72.96 74.07 67.34 67.10 68.75 72.41 71.66 72.39 72.50 72.42 72.28 74.24 71.44 72.98 69.43 67.12 66.70 66.74 69.33 72.00 69.17 69.65 68.44 68.98 68.26 67.88 68.13 68.56 68.85 72.04 73.82 71.32 67.14 62.81 61.90 59.98 60.11 59.39 58.57
68.65 67.89 72.03 72.47 72.38 72.88 66.36 65.69 67.38 72.17 72.55 71.84 72.45 72.96 72.42 72.36 71.15 71.17 71.00 70.86 71.11 71.29 69.56 68.51 68.75 70.60 70.70 71.07 70.21 71.01 69.56 69.88 71.11 72.53 74.59 71.07 66.63 62.71 61.68 59.98 60.16 58.65 57.81
71.24 70.02 69.52 71.44 72.74 73.27 64.44 64.33 65.74 71.45 72.08 71.75 72.13 71.59 72.49 72.65 68.91 65.74 70.86 70.68 70.76 70.97 69.11 65.62 65.72 65.49 65.40 65.40 67.50 70.27 70.21 68.92 68.31 69.35 72.71 70.93 66.62 62.72 61.38 59.97 60.32 58.81 56.40
72.66 72.88 72.02 71.96 69.60 72.94 65.05 63.01 65.12 73.32 70.61 70.23 70.80 71.59 65.69 69.72 64.63 62.69 70.18 70.55 69.34 70.39 70.07 70.48 70.92 67.32 64.93 67.41 65.24 68.11 70.55 69.64 68.18 70.14 72.51 69.33 65.54 64.38 60.73 60.98 60.20 59.50 57.76

GFSMA_sfc_wetblb_087.txt.gz
Wetbulb
68.87 70.07 70.29 70.02 70.27 69.89 69.03 68.93 69.41 69.73 70.23 70.89 70.55 70.03 68.92 69.97 70.59 71.88 71.86 74.94 75.85 75.41 74.50 74.67 74.46 73.93 73.57 73.76 73.56 72.92 73.18 73.06 71.43 71.73 72.51 72.36 72.02 72.29 72.26 71.98 72.06 72.45 72.96
69.89 69.64 69.96 69.48 69.53 69.39 68.65 69.73 69.05 69.19 69.95 70.79 69.39 68.93 69.24 70.15 71.00 71.64 71.37 71.88 75.36 75.43 74.88 74.12 74.22 74.59 73.66 73.68 73.54 73.64 73.16 72.74 72.95 73.02 72.66 72.71 72.56 72.90 73.63 73.43 73.60 73.28 73.33
70.09 67.41 69.67 69.49 69.12 67.66 68.76 69.52 68.70 69.29 69.03 69.52 67.45 68.78 69.36 69.53 70.21 70.99 71.56 71.62 72.92 75.02 75.29 74.29 73.81 74.12 73.92 73.66 73.57 73.02 72.79 73.08 73.38 72.82 73.15 73.13 73.25 73.45 73.55 73.33 73.06 73.28 72.94
70.54 69.25 69.12 69.35 69.62 67.89 68.47 69.19 68.17 67.52 66.71 66.63 66.65 67.64 68.46 68.64 68.99 69.81 71.14 71.30 71.49 72.49 74.10 74.97 74.80 74.18 73.43 73.62 73.37 73.31 73.47 73.82 73.87 73.88 74.07 74.30 74.03 74.00 73.76 73.48 73.86 72.96 72.51
72.69 70.81 70.03 69.37 69.88 68.79 68.20 69.03 68.51 67.27 66.21 65.88 66.36 67.21 68.01 67.76 68.27 69.73 69.71 70.91 70.86 71.64 70.81 73.35 75.43 75.65 74.58 75.35 75.50 75.04 74.93 75.56 75.50 75.50 75.35 74.98 74.75 74.48 74.10 73.95 73.57 72.78 72.43
73.65 72.25 71.52 69.90 70.72 68.99 68.72 68.88 66.75 66.59 67.15 66.28 67.72 66.43 66.98 67.52 67.49 67.72 68.17 69.88 70.04 70.83 70.75 71.32 71.52 73.67 75.83 75.45 76.33 76.81 75.67 76.25 76.38 76.41 76.13 75.97 75.65 75.26 74.93 74.62 73.73 72.85 72.24
72.90 72.36 71.32 70.79 71.38 69.73 69.74 68.94 67.72 66.14 67.32 65.93 63.53 64.05 65.06 65.99 66.50 66.80 68.32 68.53 69.01 69.95 70.04 69.95 70.13 71.41 72.12 74.95 76.18 76.46 76.27 76.42 76.63 76.81 76.93 76.14 75.42 75.16 74.95 74.59 73.82 73.01 72.23
72.97 72.59 71.74 70.89 69.35 68.74 69.24 69.15 68.04 66.84 67.52 66.09 63.27 62.85 60.08 61.18 62.29 65.04 66.04 67.78 68.21 69.46 70.08 70.20 69.55 69.69 70.57 70.88 71.56 74.65 76.23 76.83 76.31 76.78 76.73 76.28 75.72 75.24 74.85 74.38 73.73 73.37 72.36
72.97 72.48 71.98 69.96 68.82 69.67 68.05 68.34 69.27 67.28 64.84 66.52 65.64 63.59 59.04 58.10 60.39 63.09 64.04 65.19 66.05 66.10 68.58 69.94 70.12 69.95 69.65 69.76 71.72 72.49 75.12 75.35 76.10 76.38 76.70 76.33 75.84 75.17 74.72 74.41 74.30 73.40 72.70
72.75 71.45 72.50 72.09 70.97 70.35 69.55 69.79 70.02 67.52 66.50 64.88 66.21 64.80 65.00 63.50 59.58 59.48 62.97 64.77 65.27 65.37 65.52 68.10 69.75 70.33 70.32 70.56 72.27 73.48 74.30 74.40 75.13 76.16 76.81 76.71 76.23 75.99 75.41 74.71 74.51 74.09 73.05
72.73 72.98 71.84 71.72 71.41 71.29 69.96 70.71 70.31 69.51 68.87 67.11 66.67 63.16 63.75 64.56 63.04 61.02 59.71 62.25 65.20 66.26 65.93 66.22 67.61 68.23 68.69 69.29 69.92 71.34 73.65 74.34 74.53 74.91 75.80 76.15 76.41 76.56 76.58 76.08 75.30 74.89 74.18
71.90 72.01 71.99 72.03 71.78 70.58 70.71 70.81 71.00 69.73 70.26 70.15 69.37 65.92 63.31 63.17 62.47 62.69 61.13 61.56 63.28 65.11 66.33 66.63 66.65 66.67 67.84 68.92 71.69 73.39 73.63 73.45 73.09 73.40 73.22 74.25 75.27 76.18 76.39 76.36 75.63 74.71 74.72
71.08 71.52 71.90 71.63 71.63 71.58 71.43 71.12 70.95 70.33 70.55 69.87 69.99 68.35 68.99 68.53 66.78 64.44 62.59 62.22 62.26 63.52 64.70 65.95 66.51 67.41 68.70 68.47 69.61 72.91 73.48 72.16 71.77 71.09 70.88 71.42 72.28 73.63 74.65 75.55 76.22 75.49 74.79
71.62 72.50 71.91 72.52 72.56 72.18 71.77 71.50 71.87 71.61 71.80 70.82 69.98 70.50 69.91 69.39 69.68 66.23 63.84 62.80 61.11 61.05 62.52 63.68 67.23 67.88 68.63 69.56 70.51 72.91 71.06 70.32 70.00 69.19 68.87 69.25 70.20 71.20 72.10 72.62 73.29 74.12 74.18
71.92 72.24 71.68 72.07 72.48 71.87 71.01 71.75 71.22 70.86 71.54 71.27 71.11 69.78 69.34 69.86 69.95 69.63 67.60 64.83 62.95 60.35 61.20 63.73 65.44 67.72 68.82 71.85 72.63 72.17 71.31 70.37 69.08 68.24 67.74 67.50 67.71 68.68 69.45 70.10 70.23 70.62 71.78
70.11 70.80 71.98 71.87 72.06 72.12 71.09 71.29 70.67 70.74 70.55 70.76 71.00 70.41 69.85 70.06 70.43 70.63 69.88 67.97 65.65 63.36 62.37 63.94 66.03 67.17 69.91 72.27 72.64 72.61 72.44 71.13 70.18 69.21 68.44 67.14 66.85 67.30 67.75 67.86 67.93 68.24 68.89
69.88 69.94 70.62 72.73 72.25 71.77 71.95 71.34 71.00 70.92 70.96 70.73 70.29 70.27 69.97 70.37 70.58 70.56 69.72 69.70 68.76 66.97 65.44 67.16 66.93 70.08 70.46 71.11 72.17 72.66 73.01 72.44 73.15 69.82 67.43 65.90 65.07 65.49 65.62 65.51 65.51 65.91 66.83
70.02 70.25 70.63 70.80 72.51 72.42 71.90 71.13 71.13 72.13 70.78 70.43 70.74 70.14 70.36 71.69 70.47 70.43 70.22 69.49 69.18 69.21 68.43 67.50 68.29 69.84 70.25 71.33 71.94 71.41 71.67 73.26 71.90 70.12 65.56 64.47 63.41 62.79 62.27 62.06 61.73 61.68 61.53
70.25 71.50 71.25 70.84 71.80 72.24 71.80 71.90 71.17 70.97 71.09 71.17 71.57 71.42 71.32 70.76 70.10 70.31 70.74 70.70 70.75 71.46 70.12 68.65 69.15 69.87 70.50 70.98 71.10 71.03 70.91 70.04 71.77 70.06 64.38 63.67 63.30 62.43 61.38 60.82 60.62 60.41 60.01
69.43 70.31 72.20 71.94 71.65 72.24 72.31 71.90 71.97 71.43 71.05 71.26 71.20 71.36 71.65 71.53 71.31 71.02 70.75 70.69 70.69 70.27 70.18 69.80 69.44 69.71 69.85 70.76 69.84 69.33 67.88 68.60 69.52 73.03 68.54 65.65 64.64 63.75 61.95 60.86 61.85 61.83 58.77
69.97 70.03 70.81 71.95 71.84 71.83 72.29 71.22 71.45 71.71 71.09 70.69 70.93 71.22 71.62 72.20 71.26 70.97 72.20 71.03 70.56 70.18 70.16 69.94 69.26 69.06 69.69 68.85 68.40 67.98 67.46 67.86 69.19 70.57 71.68 70.44 66.20 64.50 61.31 60.62 61.95 62.05 59.59
70.09 70.61 70.98 70.98 71.73 72.78 68.16 67.33 70.59 70.90 70.78 70.66 70.17 70.42 71.54 71.29 70.49 68.24 67.75 68.04 69.94 70.42 69.82 69.44 69.58 69.67 69.91 68.16 67.08 67.17 66.51 66.76 66.22 71.13 71.61 70.57 66.85 62.07 61.13 59.59 60.80 60.24 59.51
68.46 69.30 70.62 71.67 71.66 72.04 66.37 66.00 67.80 71.62 70.83 70.87 70.71 70.78 70.93 72.88 70.57 72.12 68.92 66.74 66.54 66.18 68.74 71.39 69.26 69.14 68.24 68.37 67.41 66.54 66.38 66.83 66.85 69.91 71.06 70.35 65.98 62.15 60.99 60.04 60.01 59.28 58.30
67.84 67.31 68.56 70.57 71.58 72.58 65.67 64.32 66.43 70.80 70.97 70.95 71.18 71.17 71.22 71.13 70.70 71.01 70.84 70.17 70.21 70.26 68.78 68.19 68.85 70.25 69.72 70.46 69.07 69.07 68.11 68.18 69.33 71.25 72.18 69.72 65.67 62.42 60.83 59.34 60.01 58.80 57.56
67.75 67.70 67.19 66.85 69.85 70.98 63.50 63.87 64.81 70.39 71.25 71.79 71.90 71.33 71.77 71.73 68.08 65.00 69.89 69.96 69.82 70.39 68.42 64.98 65.43 64.92 64.69 64.58 66.25 68.20 67.36 67.77 67.02 68.11 72.01 70.43 66.21 62.41 60.73 59.15 59.76 58.22 56.13
69.67 69.87 68.73 67.83 66.38 69.75 63.13 61.45 64.06 71.77 71.17 71.25 71.75 71.47 65.27 69.56 64.20 61.82 68.87 70.16 68.99 70.06 69.15 68.51 68.33 66.13 64.24 66.56 64.14 67.37 68.56 67.66 66.75 67.81 71.44 69.78 65.64 63.15 59.07 59.03 59.34 58.93 57.14